Location: Monte Entu
(40.0333°N, 8.5333°E)
Time: 01:59:41
(UTC+00:00)

SL-4 R/B - Pass Details

Date: 09 February 2023
Orbit: 423 x 637 km, 51.6° (Epoch: 01 April)

Event Time Altitude Azimuth Distance (km) Brightness Sun altitude
Rises 19:07:28 0° 302° (WNW) 2,460 6.3 -25.9°
Reaches altitude 10° 19:09:36 10° 295° (WNW) 1,613 5.3 -26.4°
Enters shadow 19:12:04 35° 265° (W) 794 3.3 -26.8°
